United States

Ashburn, VA Weather Archive

Below you will find the last 24 hours of weather readings for Ashburn VA

Ashburn VA Today's Weather Data

Observed at: Ashburn, VA

Hour Observerd Temp Pressure Visibility Humidity Dew Point Wind
14:00 Overcast 80°F (26.7°C) 101.59 kPa 10 miles 77% 72.1°F (22.3°C) 1 mph SSE 168°2 mph
13:00 Overcast 79°F (26.1°C) 101.63 kPa 10 miles 78% 71.5°F (22°C) 1 mph SSE 164°3 mph
12:00 Overcast 78°F (25.6°C) 101.66 kPa 10 miles 81% 71.7°F (22°C) 1 mph SW 225°2 mph
11:00 Overcast 76°F (24.4°C) 101.66 kPa 10 miles 84% 70.8°F (21.6°C) 1 mph SW 225°2 mph
10:00 Partly Cloudy 73°F (22.8°C) 101.66 kPa 10 miles 97% 72.1°F (22.3°C) 1 mph SW 225°2 mph
09:00 Partly Cloudy 72°F (22.2°C) 101.66 kPa 10 miles 100% 72°F (22.2°C) 1 mph SW 225°2 mph
08:00 Partly Cloudy 73°F (22.8°C) 101.66 kPa 10 miles 100% 73°F (22.8°C) 1 mph SW 217°2 mph
07:00 Mostly Cloudy 70°F (21.1°C) 101.59 kPa 10 miles 100% 70°F (21.1°C) 1 mph NW 315°2 mph
06:00 Partly Cloudy 71°F (21.7°C) 101.59 kPa 10 miles 100% 71°F (21.7°C) 1 mph NNE 12°2 mph
05:00 Fair 71°F (21.7°C) 101.59 kPa 10 miles 99% 70.7°F (21.5°C) 1 mph NW 315°2 mph
04:00 Fair 72°F (22.2°C) 101.59 kPa 10 miles 95% 70.5°F (21.4°C) 1 mph N 9°2 mph
03:00 Mostly Cloudy 73°F (22.8°C) 101.59 kPa 10 miles 93% 70.8°F (21.6°C) 1 mph N 359°
02:00 Overcast 73°F (22.8°C) 101.59 kPa 10 miles 93% 70.8°F (21.6°C) 1 mph NE 45°2 mph
01:00 Overcast 73°F (22.8°C) 101.59 kPa 10 miles 90% 69.9°F (21°C) 1 mph E 90°2 mph
00:00 Overcast 74°F (23.3°C) 101.59 kPa 10 miles 85% 69.2°F (20.7°C) 1 mph W 270°2 mph
23:00 Overcast 74°F (23.3°C) 101.63 kPa 10 miles 84% 68.8°F (20.5°C) 1 mph W 270°2 mph
22:00 Overcast 78°F (25.6°C) 101.66 kPa 10 miles 84% 72.8°F (22.6°C) 1 mph SE 135°2 mph
21:00 Mostly Cloudy 79°F (26.1°C) 101.63 kPa 10 miles 79% 71.9°F (22.2°C) 1 mph SE 135°
20:00 Partly Cloudy 80°F (26.7°C) 101.52 kPa 10 miles 77% 72.1°F (22.3°C) 1 mph SE 135°2 mph
19:00 Overcast 85°F (29.4°C) 101.49 kPa 10 miles 68% 73.2°F (22.9°C) 1 mph SE 135°2 mph
18:00 Overcast 87°F (30.6°C) 101.49 kPa 10 miles 67% 74.7°F (23.7°C) 1 mph SE 140°4 mph
17:00 Overcast 91°F (32.8°C) 101.42 kPa 10 miles 61% 75.6°F (24.2°C) 1 mph N 350°3 mph
16:00 Overcast 91°F (32.8°C) 101.42 kPa 10 miles 58% 74.1°F (23.4°C) 2 mph N 8°4 mph
15:00 Mostly Cloudy 90°F (32.2°C) 101.46 kPa 10 miles 66% 77.1°F (25°C) 1 mph SSE 156°3 mph


Home | Earthquakes | About Us | Contact Us | Privacy

Copyright Friendly Forecast 2012 - 2020